When you browse on this site, cookies collect data to enhance your experience and personalize the content and advertising you see.
Visit our Privacy Policy to learn more. By continuing to use the site, you agree to this use of cookies and data.
  • In Romania
  • List of Countries
  • For 7 days
  • Water Temperature
  • Satellite Maps
  • Weather Map
  • Weather Widgets
  • user-avatar
    Login

    Hourly Weather Batina

    Today, 24 June, Monday

    Time Temperature Precipitation Wind Pressure Humidity
    00:00 +30°C° 0 mm 5 mps 673 mmHg 13%
    01:00 +29°C° 0 mm 4 mps 673 mmHg 14%
    02:00 +28°C° 0 mm 4 mps 672 mmHg 15%
    03:00 +28°C° 0 mm 4 mps 672 mmHg 16%
    04:00 +29°C° 0 mm 4 mps 673 mmHg 16%
    05:00 +30°C° 0 mm 4 mps 673 mmHg 16%
    06:00 +31°C° 0 mm 3 mps 674 mmHg 17%
    07:00 +34°C° 0 mm 5 mps 674 mmHg 14%
    08:00 +35°C° 0 mm 6 mps 675 mmHg 12%
    09:00 +38°C° 0 mm 7 mps 675 mmHg 10%
    10:00 +39°C° 0 mm 7 mps 675 mmHg 10%
    11:00 +39°C° 0 mm 8 mps 675 mmHg 9%
    12:00 +40°C° 0 mm 8 mps 675 mmHg 9%
    13:00 +40°C° 0 mm 7 mps 675 mmHg 9%
    14:00 +40°C° 0 mm 7 mps 675 mmHg 8%
    15:00 +39°C° 0 mm 7 mps 674 mmHg 8%
    16:00 +39°C° 0 mm 6 mps 674 mmHg 8%
    17:00 +37°C° 0 mm 5 mps 674 mmHg 9%
    18:00 +36°C° 0 mm 4 mps 674 mmHg 9%
    19:00 +35°C° 0 mm 4 mps 674 mmHg 10%
    20:00 +33°C° 0 mm 4 mps 674 mmHg 11%
    21:00 +30°C° 0 mm 4 mps 674 mmHg 12%
    22:00 +30°C° 0 mm 4 mps 674 mmHg 13%
    23:00 +29°C° 0 mm 3 mps 673 mmHg 13%

    Tomorrow, 25 June, Tuesday

    Time Temperature Precipitation Wind Pressure Humidity
    00:00 +29°C° 0 mm 3 mps 673 mmHg 14%
    01:00 +28°C° 0 mm 3 mps 673 mmHg 15%
    02:00 +28°C° 0 mm 3 mps 673 mmHg 15%
    03:00 +27°C° 0 mm 3 mps 673 mmHg 16%
    04:00 +28°C° 0 mm 2 mps 673 mmHg 16%
    05:00 +29°C° 0 mm 2 mps 674 mmHg 16%
    06:00 +31°C° 0 mm 2 mps 675 mmHg 16%
    07:00 +34°C° 0 mm 3 mps 675 mmHg 14%
    08:00 +35°C° 0 mm 5 mps 676 mmHg 11%
    09:00 +38°C° 0 mm 6 mps 677 mmHg 9%
    10:00 +39°C° 0 mm 6 mps 677 mmHg 9%
    11:00 +39°C° 0 mm 5 mps 677 mmHg 9%
    12:00 +40°C° 0 mm 5 mps 677 mmHg 8%
    13:00 +40°C° 0 mm 5 mps 677 mmHg 8%
    14:00 +40°C° 0 mm 5 mps 676 mmHg 8%
    15:00 +40°C° 0 mm 5 mps 676 mmHg 8%
    16:00 +40°C° 0 mm 5 mps 676 mmHg 9%
    17:00 +39°C° 0 mm 5 mps 676 mmHg 9%
    18:00 +37°C° 0 mm 4 mps 676 mmHg 10%
    19:00 +35°C° 0 mm 3 mps 676 mmHg 13%
    20:00 +31°C° 0 mm 2 mps 676 mmHg 15%
    21:00 +29°C° 0 mm 1 mps 675 mmHg 18%
    22:00 +29°C° 0 mm 1 mps 675 mmHg 19%
    23:00 +28°C° 0 mm 1 mps 675 mmHg 21%

    Day after tomorrow, 26 June, Wednesday

    Time Temperature Precipitation Wind Pressure Humidity
    00:00 +27°C° 0 mm 1 mps 675 mmHg 22%
    01:00 +27°C° 0 mm 1 mps 674 mmHg 22%
    02:00 +26°C° 0 mm 1 mps 674 mmHg 23%
    03:00 +26°C° 0 mm 1 mps 674 mmHg 23%
    04:00 +28°C° 0 mm 1 mps 675 mmHg 22%
    05:00 +28°C° 0 mm 0 mps 675 mmHg 21%
    06:00 +30°C° 0 mm 0 mps 676 mmHg 20%
    07:00 +33°C° 0 mm 1 mps 676 mmHg 17%
    08:00 +35°C° 0 mm 1 mps 677 mmHg 14%
    09:00 +37°C° 0 mm 2 mps 677 mmHg 10%
    10:00 +38°C° 0 mm 2 mps 677 mmHg 10%
    11:00 +39°C° 0 mm 3 mps 677 mmHg 10%
    12:00 +40°C° 0 mm 4 mps 677 mmHg 9%
    13:00 +40°C° 0 mm 4 mps 677 mmHg 9%
    14:00 +40°C° 0 mm 4 mps 676 mmHg 9%
    15:00 +40°C° 0 mm 4 mps 676 mmHg 9%
    16:00 +40°C° 0 mm 5 mps 676 mmHg 9%
    17:00 +39°C° 0 mm 5 mps 675 mmHg 10%
    18:00 +37°C° 0 mm 5 mps 675 mmHg 11%
    19:00 +35°C° 0 mm 4 mps 675 mmHg 14%
    20:00 +31°C° 0 mm 3 mps 675 mmHg 17%
    21:00 +29°C° 0 mm 2 mps 674 mmHg 20%
    22:00 +28°C° 0 mm 2 mps 674 mmHg 20%
    23:00 +27°C° 0 mm 2 mps 674 mmHg 21%

    27 June, Thursday

    Time Temperature Precipitation Wind Pressure Humidity
    00:00 +27°C° 0 mm 2 mps 674 mmHg 21%
    01:00 +26°C° 0 mm 2 mps 673 mmHg 21%
    02:00 +26°C° 0 mm 1 mps 673 mmHg 21%
    03:00 +25°C° 0 mm 1 mps 673 mmHg 20%
    04:00 +27°C° 0 mm 1 mps 673 mmHg 19%
    05:00 +28°C° 0 mm 1 mps 674 mmHg 17%
    06:00 +30°C° 0 mm 1 mps 674 mmHg 16%
    07:00 +32°C° 0 mm 2 mps 675 mmHg 14%
    08:00 +34°C° 0 mm 3 mps 675 mmHg 12%
    09:00 +36°C° 0 mm 4 mps 676 mmHg 10%
    10:00 +37°C° 0 mm 5 mps 676 mmHg 9%
    11:00 +39°C° 0 mm 6 mps 676 mmHg 9%
    12:00 +40°C° 0 mm 8 mps 675 mmHg 8%
    13:00 +40°C° 0 mm 8 mps 675 mmHg 8%
    14:00 +39°C° 0 mm 9 mps 674 mmHg 9%
    15:00 +39°C° 0 mm 9 mps 674 mmHg 9%
    16:00 +38°C° 0 mm 9 mps 673 mmHg 11%
    17:00 +35°C° 0 mm 8 mps 673 mmHg 14%
    18:00 +34°C° 0 mm 8 mps 673 mmHg 17%
    19:00 +32°C° 0 mm 6 mps 673 mmHg 23%
    20:00 +28°C° 0 mm 5 mps 672 mmHg 30%
    21:00 +26°C° 0 mm 3 mps 672 mmHg 36%
    22:00 +26°C° 0 mm 3 mps 672 mmHg 40%
    23:00 +25°C° 0 mm 2 mps 672 mmHg 43%

    28 June, Friday

    Time Temperature Precipitation Wind Pressure Humidity
    00:00 +24°C° 0 mm 2 mps 672 mmHg 46%
    01:00 +23°C° 0 mm 2 mps 671 mmHg 48%
    02:00 +23°C° 0 mm 2 mps 671 mmHg 50%
    03:00 +21°C° 0 mm 2 mps 671 mmHg 52%
    04:00 +23°C° 0 mm 1 mps 671 mmHg 49%
    05:00 +24°C° 0 mm 1 mps 671 mmHg 45%
    06:00 +25°C° 0 mm 1 mps 672 mmHg 42%
    07:00 +26°C° 0 mm 1 mps 672 mmHg 38%
    08:00 +28°C° 0 mm 1 mps 673 mmHg 34%
    09:00 +29°C° 0 mm 2 mps 673 mmHg 29%
    10:00 +31°C° 0 mm 2 mps 673 mmHg 26%
    11:00 +33°C° 0 mm 3 mps 673 mmHg 24%
    12:00 +34°C° 0 mm 3 mps 673 mmHg 21%
    13:00 +34°C° 0 mm 4 mps 673 mmHg 19%
    14:00 +35°C° 0 mm 4 mps 673 mmHg 18%
    15:00 +35°C° 0 mm 4 mps 672 mmHg 17%
    16:00 +34°C° 0 mm 5 mps 672 mmHg 20%
    17:00 +33°C° 0 mm 6 mps 672 mmHg 23%
    18:00 +32°C° 0 mm 8 mps 672 mmHg 26%
    19:00 +30°C° 0 mm 6 mps 671 mmHg 31%
    20:00 +28°C° 0 mm 5 mps 671 mmHg 36%
    21:00 +26°C° 0 mm 3 mps 671 mmHg 41%
    22:00 +25°C° 0 mm 3 mps 671 mmHg 44%
    23:00 +25°C° 0 mm 2 mps 671 mmHg 46%

    29 June, Saturday

    Time Temperature Precipitation Wind Pressure Humidity
    00:00 +24°C° 0 mm 2 mps 671 mmHg 49%
    01:00 +23°C° 0 mm 1 mps 670 mmHg 51%
    02:00 +23°C° 0 mm 1 mps 670 mmHg 54%
    03:00 +22°C° 0 mm 1 mps 670 mmHg 56%
    04:00 +23°C° 0 mm 1 mps 670 mmHg 52%
    05:00 +24°C° 0 mm 1 mps 671 mmHg 48%
    06:00 +26°C° 0 mm 1 mps 672 mmHg 44%
    07:00 +27°C° 0 mm 1 mps 672 mmHg 40%
    08:00 +29°C° 0 mm 2 mps 673 mmHg 35%
    09:00 +30°C° 0 mm 2 mps 673 mmHg 31%
    10:00 +31°C° 0 mm 3 mps 673 mmHg 27%
    11:00 +33°C° 0 mm 3 mps 673 mmHg 23%
    12:00 +35°C° 0 mm 4 mps 673 mmHg 19%
    13:00 +35°C° 0 mm 4 mps 673 mmHg 18%
    14:00 +36°C° 0 mm 4 mps 673 mmHg 16%
    15:00 +36°C° 0 mm 4 mps 672 mmHg 14%
    16:00 +35°C° 0 mm 4 mps 672 mmHg 15%
    17:00 +35°C° 0 mm 5 mps 672 mmHg 15%
    18:00 +34°C° 0 mm 5 mps 672 mmHg 16%
    19:00 +32°C° 0 mm 4 mps 672 mmHg 23%
    20:00 +29°C° 0 mm 3 mps 672 mmHg 29%
    21:00 +27°C° 0 mm 2 mps 672 mmHg 36%
    22:00 +26°C° 0 mm 2 mps 672 mmHg 39%
    23:00 +25°C° 0 mm 2 mps 672 mmHg 41%
    Show more